sat.trackr.live / text

‹ back to catalog

STARLINK-2687

NORAD 48466 · 2021-040AQ

PAYLOAD ACTIVE UNKNOWN

§ Identity

Operator
Country
US
Launch date
2021-05-09
Launch site
AFETR
Launch vehicle
Mass (kg)
RCS (m²)

Purposes: comms

External: N2YO · Heavens-Above · Gunter

§ Orbital elements

Epoch: 2026-09-09T18:01:46.973568Z

Period
94.01 min
Inclination
53.1582°
Eccentricity
0.0000967
Mean motion
15.31711935 rev/d
Perigee alt
470.0 km
Apogee alt
471.4 km
Semi-major
6,848.8 km
B*
2.1338e-4
RAAN
54.5395°
Arg perigee
92.9851°
Mean anomaly
267.1261°
Rev number
29,471

§ Raw data

STARLINK-26871 48466U 21040AQ  26252.75123812  .00006264  00000+0  21338-3 0  99982 48466  53.1582  54.5395 0000967  92.9851 267.1261 15.31711935294715

JSON: /api/v1/satellites/48466 · /tle

For live sub-satellite position, see the globe view (requires WebGL).

§ Visibility from observer

Set your observer location to see the next 7 days of passes ≥ 10°. The values pass through the URL so the page stays shareable.

No JS? Fill the form by hand. The geolocation button needs JavaScript.